| time (UTC) | temp F | wind direction | speed MPH | gust MPH | rain 1hr in | rain 24hr in | rain mn in | humidity % | barometer mb |
| 20260904151504 | 54 | 250 | 1.0 | 3.0 | 0.00 | 0.00 | 0.00 | 94 | 1013.9 |
| 20260904151004 | 54 | 250 | 1.0 | 2.0 | 0.00 | 0.00 | 0.00 | 94 | 1013.7 |
| 20260904150504 | 54 | 250 | 1.0 | 3.0 | 0.00 | 0.00 | 0.00 | 94 | 1013.7 |
| 20260904150004 | 54 | 305 | 2.0 | 3.0 | 0.00 | 0.00 | 0.00 | 94 | 1013.6 |
| 20260904145504 | 54 | 307 | 0.0 | 2.0 | 0.00 | 0.00 | 0.00 | 94 | 1013.7 |
| 20260904145005 | 54 | 307 | 1.0 | 3.0 | 0.00 | 0.00 | 0.00 | 94 | 1013.4 |
| 20260904144504 | 54 | 307 | 2.0 | 3.0 | 0.00 | 0.00 | 0.00 | 94 | 1013.4 |
| 20260904144005 | 54 | 309 | 2.0 | 3.0 | 0.00 | 0.00 | 0.00 | 94 | 1013.5 |
| 20260904143504 | 54 | 275 | 1.0 | 3.0 | 0.00 | 0.00 | 0.00 | 94 | 1013.4 |
| 20260904143005 | 54 | 275 | 2.0 | 3.0 | 0.00 | 0.00 | 0.00 | 94 | 1013.6 |
| 20260904142505 | 54 | 275 | 2.0 | 6.0 | 0.00 | 0.00 | 0.00 | 94 | 1013.3 |
| 20260904142004 | 55 | 237 | 1.0 | 2.0 | 0.00 | 0.00 | 0.00 | 94 | 1013.3 |
| 20260904141504 | 55 | 237 | 2.0 | 3.0 | 0.00 | 0.00 | 0.00 | 94 | 1013.4 |
| 20260904141004 | 55 | 242 | 1.0 | 3.0 | 0.00 | 0.00 | 0.00 | 94 | 1013.1 |
| 20260904140504 | 55 | 242 | 1.0 | 3.0 | 0.00 | 0.00 | 0.00 | 94 | 1013.1 |
| 20260904140005 | 55 | 242 | 1.0 | 6.0 | 0.00 | 0.00 | 0.00 | 94 | 1013.1 |
| 20260904135504 | 55 | 243 | 1.0 | 5.0 | 0.00 | 0.00 | 0.00 | 94 | 1013.0 |
| 20260904135005 | 55 | 244 | 1.0 | 3.0 | 0.00 | 0.00 | 0.00 | 94 | 1013.0 |
| 20260904134504 | 55 | 244 | 0.0 | 3.0 | 0.00 | 0.00 | 0.00 | 94 | 1012.9 |
| 20260904134005 | 55 | 244 | 0.0 | 2.0 | 0.00 | 0.00 | 0.00 | 94 | 1013.0 |
| 20260904133504 | 55 | 244 | 0.0 | 2.0 | 0.00 | 0.00 | 0.00 | 93 | 1013.0 |
| 20260904133004 | 55 | 243 | 0.0 | 2.0 | 0.00 | 0.00 | 0.00 | 93 | 1012.8 |
| 20260904132504 | 55 | 243 | 1.0 | 3.0 | 0.00 | 0.00 | 0.00 | 93 | 1012.9 |
| 20260904132005 | 55 | 252 | 1.0 | 3.0 | 0.00 | 0.00 | 0.00 | 93 | 1012.8 |
| 20260904131505 | 55 | 276 | 1.0 | 3.0 | 0.00 | 0.00 | 0.00 | 93 | 1012.8 |
| 20260904131005 | 55 | 276 | 1.0 | 2.0 | 0.00 | 0.00 | 0.00 | 93 | 1012.7 |
| 20260904130505 | 55 | 276 | 2.0 | 3.0 | 0.00 | 0.00 | 0.00 | 93 | 1012.8 |
| 20260904130004 | 56 | 268 | 1.0 | 3.0 | 0.00 | 0.00 | 0.00 | 93 | 1012.7 |
| 20260904125504 | 56 | 270 | 1.0 | 6.0 | 0.00 | 0.00 | 0.00 | 92 | 1012.7 |
| 20260904124504 | 56 | 226 | 2.0 | 3.0 | 0.00 | 0.00 | 0.00 | 92 | 1012.5 |
| 20260904124005 | 57 | 226 | 0.0 | 1.0 | 0.00 | 0.00 | 0.00 | 91 | 1012.4 |
| 20260904123505 | 57 | 226 | 2.0 | 3.0 | 0.00 | 0.00 | 0.00 | 91 | 1012.5 |
| 20260904123005 | 57 | 226 | 1.0 | 2.0 | 0.00 | 0.00 | 0.00 | 91 | 1012.4 |
| 20260904121005 | 57 | 226 | 1.0 | 3.0 | 0.00 | 0.00 | 0.00 | 90 | 1012.4 |
| 20260904120504 | 57 | 226 | 1.0 | 3.0 | 0.00 | 0.00 | 0.00 | 90 | 1012.4 |
| 20260904120004 | 57 | 226 | 0.0 | 3.0 | 0.00 | 0.00 | 0.00 | 90 | 1012.3 |
| 20260904115004 | 57 | 355 | 0.0 | 0.0 | 0.00 | 0.00 | 0.00 | 90 | 1012.3 |
| 20260904114504 | 57 | 355 | 0.0 | 0.0 | 0.00 | 0.00 | 0.00 | 89 | 1012.3 |
| 20260904114004 | 57 | 355 | 0.0 | 0.0 | 0.00 | 0.00 | 0.00 | 89 | 1012.3 |
| 20260904113504 | 57 | 355 | 0.0 | 0.0 | 0.00 | 0.00 | 0.00 | 89 | 1012.2 |
| 20260904112004 | 57 | 355 | 0.0 | 0.0 | 0.00 | 0.00 | 0.00 | 90 | 1012.2 |
| 20260904111504 | 57 | 355 | 0.0 | 0.0 | 0.00 | 0.00 | 0.00 | 89 | 1012.1 |
| 20260904111004 | 57 | 355 | 0.0 | 0.0 | 0.00 | 0.00 | 0.00 | 90 | 1012.1 |
| 20260904110504 | 57 | 355 | 0.0 | 0.0 | 0.00 | 0.00 | 0.00 | 90 | 1012.1 |
| 20260904110004 | 57 | 355 | 0.0 | 0.0 | 0.00 | 0.00 | 0.00 | 89 | 1012.0 |
| 20260904105505 | 57 | 355 | 0.0 | 0.0 | 0.00 | 0.00 | 0.00 | 89 | 1012.0 |
| 20260904105004 | 57 | 355 | 0.0 | 1.0 | 0.00 | 0.00 | 0.00 | 89 | 1012.1 |
| 20260904104504 | 57 | 355 | 0.0 | 2.0 | 0.00 | 0.00 | 0.00 | 89 | 1012.1 |
| 20260904104004 | 57 | 355 | 1.0 | 2.0 | 0.00 | 0.00 | 0.00 | 89 | 1012.1 |
| 20260904103504 | 57 | 355 | 0.0 | 0.0 | 0.00 | 0.00 | 0.00 | 87 | 1012.1 |
| 20260904103004 | 58 | 355 | 0.0 | 1.0 | 0.00 | 0.00 | 0.00 | 87 | 1012.1 |
| 20260904102504 | 58 | 355 | 0.0 | 0.0 | 0.00 | 0.00 | 0.00 | 87 | 1012.0 |
| 20260904102004 | 58 | 355 | 0.0 | 0.0 | 0.00 | 0.00 | 0.00 | 87 | 1012.0 |
| 20260904101505 | 58 | 355 | 0.0 | 0.0 | 0.00 | 0.00 | 0.00 | 87 | 1012.0 |
| 20260904101004 | 58 | 355 | 0.0 | 0.0 | 0.00 | 0.00 | 0.00 | 88 | 1012.0 |
| 20260904100005 | 58 | 355 | 0.0 | 0.0 | 0.00 | 0.00 | 0.00 | 88 | 1012.0 |
| 20260904095504 | 58 | 355 | 0.0 | 1.0 | 0.00 | 0.00 | 0.00 | 88 | 1012.1 |
| 20260904095004 | 58 | 355 | 0.0 | 1.0 | 0.00 | 0.00 | 0.00 | 88 | 1012.1 |
| 20260904094504 | 58 | 355 | 0.0 | 0.0 | 0.00 | 0.00 | 0.00 | 88 | 1012.0 |
| 20260904094004 | 58 | 355 | 0.0 | 0.0 | 0.00 | 0.00 | 0.00 | 88 | 1012.0 |
| 20260904093504 | 58 | 355 | 0.0 | 1.0 | 0.00 | 0.00 | 0.00 | 88 | 1012.1 |
| 20260904092504 | 58 | 355 | 0.0 | 0.0 | 0.00 | 0.00 | 0.00 | 88 | 1012.2 |
| 20260904092005 | 58 | 355 | 0.0 | 0.0 | 0.00 | 0.00 | 0.00 | 88 | 1012.2 |
| 20260904091504 | 58 | 355 | 0.0 | 0.0 | 0.00 | 0.00 | 0.00 | 88 | 1012.2 |
| 20260904091004 | 58 | 355 | 0.0 | 1.0 | 0.00 | 0.00 | 0.00 | 88 | 1012.2 |
| 20260904090504 | 58 | 355 | 0.0 | 1.0 | 0.00 | 0.00 | 0.00 | 88 | 1012.2 |
| 20260904090004 | 58 | 355 | 0.0 | 1.0 | 0.00 | 0.00 | 0.00 | 87 | 1012.3 |
| 20260904085504 | 58 | 355 | 0.0 | 0.0 | 0.00 | 0.00 | 0.00 | 87 | 1012.4 |
| 20260904085004 | 58 | 355 | 0.0 | 0.0 | 0.00 | 0.00 | 0.00 | 88 | 1012.4 |
| 20260904084505 | 58 | 355 | 0.0 | 1.0 | 0.00 | 0.00 | 0.00 | 88 | 1012.4 |
| 20260904084005 | 58 | 355 | 0.0 | 0.0 | 0.00 | 0.00 | 0.00 | 88 | 1012.3 |
| 20260904083504 | 58 | 355 | 0.0 | 0.0 | 0.00 | 0.00 | 0.00 | 88 | 1012.5 |
| 20260904082508 | 58 | 355 | 0.0 | 0.0 | 0.00 | 0.00 | 0.00 | 88 | 1012.5 |
| 20260904082005 | 58 | 355 | 0.0 | 1.0 | 0.00 | 0.00 | 0.00 | 88 | 1012.5 |
| 20260904081504 | 58 | 355 | 0.0 | 0.0 | 0.00 | 0.00 | 0.00 | 88 | 1012.5 |
| 20260904081005 | 58 | 355 | 0.0 | 0.0 | 0.00 | 0.00 | 0.00 | 88 | 1012.6 |
| 20260904080504 | 58 | 355 | 0.0 | 0.0 | 0.00 | 0.00 | 0.00 | 88 | 1012.7 |
| 20260904080004 | 58 | 355 | 0.0 | 0.0 | 0.00 | 0.00 | 0.00 | 89 | 1012.4 |
| 20260904075503 | 58 | 355 | 0.0 | 0.0 | 0.00 | 0.00 | 0.00 | 89 | 1012.4 |
| 20260904074504 | 58 | 355 | 1.0 | 3.0 | 0.00 | 0.00 | 0.00 | 89 | 1012.5 |
| 20260904074004 | 58 | 355 | 0.0 | 0.0 | 0.00 | 0.00 | 0.00 | 89 | 1012.4 |
| 20260904073504 | 58 | 355 | 1.0 | 2.0 | 0.00 | 0.00 | 0.00 | 89 | 1012.5 |
| 20260904073008 | 58 | 355 | 1.0 | 2.0 | 0.00 | 0.00 | 0.00 | 89 | 1012.4 |
| 20260904072504 | 58 | 355 | 1.0 | 2.0 | 0.00 | 0.00 | 0.00 | 88 | 1012.4 |
| 20260904071504 | 58 | 355 | 0.0 | 0.0 | 0.00 | 0.00 | 0.00 | 88 | 1012.5 |
| 20260904070504 | 57 | 355 | 0.0 | 0.0 | 0.00 | 0.00 | 0.00 | 89 | 1012.3 |
| 20260904070004 | 57 | 355 | 1.0 | 3.0 | 0.00 | 0.00 | 0.00 | 88 | 1012.4 |
| 20260904065503 | 57 | 257 | 2.0 | 3.0 | 0.00 | 0.00 | 0.00 | 88 | 1012.3 |
| 20260904065004 | 58 | 257 | 2.0 | 3.0 | 0.00 | 0.00 | 0.00 | 87 | 1012.2 |
| 20260904064504 | 58 | 294 | 2.0 | 3.0 | 0.00 | 0.00 | 0.00 | 87 | 1012.3 |
| 20260904064005 | 58 | 326 | 1.0 | 2.0 | 0.00 | 0.00 | 0.00 | 86 | 1012.2 |
| 20260904063503 | 58 | 326 | 2.0 | 3.0 | 0.00 | 0.00 | 0.00 | 86 | 1012.2 |
| 20260904063004 | 58 | 326 | 0.0 | 1.0 | 0.00 | 0.00 | 0.00 | 85 | 1012.3 |
| 20260904062504 | 58 | 326 | 0.0 | 0.0 | 0.00 | 0.00 | 0.00 | 85 | 1012.2 |
| 20260904062004 | 58 | 326 | 0.0 | 0.0 | 0.00 | 0.00 | 0.00 | 85 | 1012.2 |
| 20260904061504 | 58 | 326 | 0.0 | 0.0 | 0.00 | 0.00 | 0.00 | 85 | 1012.3 |
| 20260904061004 | 59 | 326 | 0.0 | 0.0 | 0.00 | 0.00 | 0.00 | 85 | 1012.2 |
| 20260904060505 | 59 | 326 | 0.0 | 0.0 | 0.00 | 0.00 | 0.00 | 84 | 1012.2 |
| 20260904055504 | 59 | 326 | 0.0 | 2.0 | 0.00 | 0.00 | 0.00 | 84 | 1012.4 |
| 20260904054504 | 59 | 326 | 0.0 | 0.0 | 0.00 | 0.00 | 0.00 | 84 | 1012.5 |
| 20260904054004 | 59 | 326 | 0.0 | 0.0 | 0.00 | 0.00 | 0.00 | 84 | 1012.6 |
| 20260904053505 | 59 | 326 | 0.0 | 2.0 | 0.00 | 0.00 | 0.00 | 84 | 1012.7 |
| 20260904053005 | 59 | 326 | 0.0 | 3.0 | 0.00 | 0.00 | 0.00 | 84 | 1012.7 |
| 20260904052504 | 59 | 326 | 1.0 | 3.0 | 0.00 | 0.00 | 0.00 | 84 | 1012.9 |
| 20260904052004 | 59 | 326 | 1.0 | 3.0 | 0.00 | 0.00 | 0.00 | 84 | 1012.9 |
| 20260904051504 | 59 | 326 | 1.0 | 2.0 | 0.00 | 0.00 | 0.00 | 84 | 1012.9 |
| 20260904050504 | 60 | 326 | 1.0 | 3.0 | 0.00 | 0.00 | 0.00 | 83 | 1013.0 |
| 20260904050004 | 60 | 326 | 1.0 | 3.0 | 0.00 | 0.00 | 0.00 | 84 | 1013.0 |
| 20260904045504 | 60 | 326 | 0.0 | 2.0 | 0.00 | 0.00 | 0.00 | 84 | 1013.0 |
| 20260904045004 | 60 | 326 | 1.0 | 3.0 | 0.00 | 0.00 | 0.00 | 84 | 1013.1 |
| 20260904044504 | 60 | 326 | 1.0 | 2.0 | 0.00 | 0.00 | 0.00 | 83 | 1013.1 |
| 20260904044004 | 60 | 326 | 2.0 | 3.0 | 0.00 | 0.00 | 0.00 | 83 | 1013.0 |
| 20260904043504 | 60 | 323 | 1.0 | 3.0 | 0.00 | 0.00 | 0.00 | 83 | 1013.0 |
| 20260904043005 | 60 | 330 | 0.0 | 2.0 | 0.00 | 0.00 | 0.00 | 83 | 1013.0 |
| 20260904042504 | 60 | 330 | 1.0 | 2.0 | 0.00 | 0.00 | 0.00 | 83 | 1013.0 |
| 20260904042005 | 60 | 5 | 1.0 | 3.0 | 0.00 | 0.00 | 0.00 | 83 | 1012.9 |
| 20260904041504 | 60 | 296 | 1.0 | 3.0 | 0.00 | 0.00 | 0.00 | 83 | 1012.8 |
| 20260904041004 | 60 | 299 | 2.0 | 3.0 | 0.00 | 0.00 | 0.00 | 83 | 1012.8 |
| 20260904040503 | 60 | 292 | 1.0 | 3.0 | 0.00 | 0.00 | 0.00 | 83 | 1012.8 |
| 20260904035504 | 60 | 264 | 2.0 | 3.0 | 0.00 | 0.00 | 0.00 | 82 | 1012.5 |
| 20260904033504 | 61 | 293 | 2.0 | 6.0 | 0.00 | 0.00 | 0.00 | 80 | 1012.3 |
| 20260904033004 | 61 | 267 | 1.0 | 6.0 | 0.00 | 0.00 | 0.00 | 80 | 1012.3 |
| 20260904032003 | 62 | 265 | 1.0 | 3.0 | 0.00 | 0.00 | 0.00 | 78 | 1012.2 |
| 20260904031504 | 62 | 265 | 2.0 | 3.0 | 0.00 | 0.00 | 0.00 | 77 | 1012.1 |
| 20260904031003 | 62 | 265 | 2.0 | 3.0 | 0.00 | 0.00 | 0.00 | 76 | 1012.0 |
| 20260904030504 | 62 | 265 | 1.0 | 2.0 | 0.00 | 0.00 | 0.00 | 76 | 1012.0 |
| 20260904025004 | 62 | 265 | 1.0 | 3.0 | 0.00 | 0.00 | 0.00 | 75 | 1012.2 |
| 20260904024504 | 63 | 265 | 1.0 | 3.0 | 0.00 | 0.00 | 0.00 | 75 | 1012.2 |
| 20260904024004 | 63 | 265 | 2.0 | 3.0 | 0.00 | 0.00 | 0.00 | 75 | 1012.4 |
| 20260904023504 | 63 | 265 | 1.0 | 3.0 | 0.00 | 0.00 | 0.00 | 75 | 1012.4 |
| 20260904023004 | 63 | 265 | 1.0 | 3.0 | 0.00 | 0.00 | 0.00 | 74 | 1012.4 |
| 20260904022503 | 63 | 265 | 1.0 | 3.0 | 0.00 | 0.00 | 0.00 | 74 | 1012.4 |
| 20260904021504 | 63 | 265 | 2.0 | 3.0 | 0.00 | 0.00 | 0.00 | 73 | 1012.4 |
| 20260904021004 | 64 | 267 | 3.0 | 7.0 | 0.00 | 0.00 | 0.00 | 73 | 1012.3 |
| 20260904020505 | 64 | 278 | 2.0 | 3.0 | 0.00 | 0.00 | 0.00 | 72 | 1012.3 |
| 20260904020005 | 64 | 313 | 1.0 | 5.0 | 0.00 | 0.00 | 0.00 | 71 | 1012.4 |
| 20260904015505 | 65 | 41 | 1.0 | 5.0 | 0.00 | 0.00 | 0.00 | 70 | 1012.4 |
| 20260904015005 | 65 | 267 | 1.0 | 3.0 | 0.00 | 0.00 | 0.00 | 70 | 1012.4 |
| 20260904014505 | 65 | 267 | 2.0 | 7.0 | 0.00 | 0.00 | 0.00 | 69 | 1012.4 |
| 20260904013505 | 65 | 272 | 3.0 | 8.0 | 0.00 | 0.00 | 0.00 | 67 | 1012.4 |
| 20260904013005 | 66 | 297 | 3.0 | 7.0 | 0.00 | 0.00 | 0.00 | 65 | 1012.5 |
| 20260904012505 | 66 | 297 | 2.0 | 7.0 | 0.00 | 0.00 | 0.00 | 64 | 1012.5 |
| 20260904012005 | 66 | 269 | 1.0 | 6.0 | 0.00 | 0.00 | 0.00 | 62 | 1012.6 |
| 20260904011505 | 67 | 243 | 2.0 | 6.0 | 0.00 | 0.00 | 0.00 | 62 | 1012.6 |
| 20260904011005 | 67 | 260 | 2.0 | 6.0 | 0.00 | 0.00 | 0.00 | 61 | 1012.6 |
| 20260904005505 | 69 | 317 | 2.0 | 6.0 | 0.00 | 0.00 | 0.00 | 53 | 1012.4 |
| 20260904005005 | 70 | 268 | 3.0 | 6.0 | 0.00 | 0.00 | 0.00 | 51 | 1012.5 |
| 20260904004505 | 70 | 304 | 2.0 | 12.0 | 0.00 | 0.00 | 0.00 | 50 | 1012.5 |
| 20260904004005 | 71 | 192 | 5.0 | 9.0 | 0.00 | 0.00 | 0.00 | 49 | 1012.5 |
| 20260904003505 | 71 | 302 | 5.0 | 9.0 | 0.00 | 0.00 | 0.00 | 49 | 1012.4 |
| 20260904003005 | 70 | 197 | 2.0 | 7.0 | 0.00 | 0.00 | 0.00 | 49 | 1012.6 |
| 20260904002505 | 70 | 306 | 2.0 | 7.0 | 0.00 | 0.00 | 0.00 | 49 | 1012.5 |
| 20260904002004 | 70 | 272 | 4.0 | 8.0 | 0.00 | 0.00 | 0.00 | 48 | 1012.4 |
| 20260904001005 | 71 | 249 | 1.0 | 3.0 | 0.00 | 0.00 | 0.00 | 46 | 1012.4 |
| 20260904000505 | 71 | 245 | 2.0 | 5.0 | 0.00 | 0.00 | 0.00 | 46 | 1012.6 |
| 20260904000005 | 71 | 209 | 5.0 | 9.0 | 0.00 | 0.00 | 0.00 | 46 | 1012.6 |
| 20260903235005 | 72 | 198 | 3.0 | 7.0 | 0.00 | 0.00 | 0.00 | 44 | 1012.7 |
| 20260903234505 | 72 | 243 | 6.0 | 9.0 | 0.00 | 0.00 | 0.00 | 44 | 1012.6 |
| 20260903234005 | 72 | 239 | 3.0 | 7.0 | 0.00 | 0.00 | 0.00 | 43 | 1012.7 |
| 20260903233505 | 72 | 306 | 2.0 | 7.0 | 0.00 | 0.00 | 0.00 | 44 | 1012.9 |
| 20260903233005 | 71 | 205 | 4.0 | 6.0 | 0.00 | 0.00 | 0.00 | 45 | 1013.1 |
| 20260903232505 | 71 | 200 | 3.0 | 10.0 | 0.00 | 0.00 | 0.00 | 46 | 1013.1 |
| 20260903232005 | 71 | 265 | 1.0 | 6.0 | 0.00 | 0.00 | 0.00 | 46 | 1013.2 |
| 20260903231505 | 71 | 206 | 5.0 | 10.0 | 0.00 | 0.00 | 0.00 | 46 | 1013.3 |
| 20260903231004 | 71 | 193 | 3.0 | 12.0 | 0.00 | 0.00 | 0.00 | 47 | 1013.3 |
| 20260903230505 | 71 | 264 | 3.0 | 9.0 | 0.00 | 0.00 | 0.00 | 47 | 1013.3 |
| 20260903230004 | 71 | 277 | 2.0 | 6.0 | 0.00 | 0.00 | 0.00 | 47 | 1013.4 |
| 20260903225504 | 72 | 20 | 2.0 | 7.0 | 0.00 | 0.00 | 0.00 | 47 | 1013.6 |
| 20260903225006 | 72 | 258 | 5.0 | 12.0 | 0.00 | 0.00 | 0.00 | 48 | 1013.6 |
| 20260903224505 | 71 | 290 | 3.0 | 9.0 | 0.00 | 0.00 | 0.00 | 49 | 1013.6 |
| 20260903223005 | 71 | 239 | 3.0 | 12.0 | 0.00 | 0.00 | 0.00 | 51 | 1013.8 |
| 20260903222504 | 71 | 228 | 3.0 | 8.0 | 0.00 | 0.00 | 0.00 | 53 | 1014.0 |
| 20260903222005 | 70 | 220 | 5.0 | 10.0 | 0.00 | 0.00 | 0.00 | 55 | 1014.0 |
| 20260903221505 | 69 | 205 | 6.0 | 10.0 | 0.00 | 0.00 | 0.00 | 55 | 1014.1 |
| 20260903221005 | 70 | 179 | 5.0 | 10.0 | 0.00 | 0.00 | 0.00 | 56 | 1013.9 |
| 20260903220505 | 69 | 225 | 5.0 | 12.0 | 0.00 | 0.00 | 0.00 | 55 | 1014.1 |
| 20260903220005 | 70 | 68 | 5.0 | 12.0 | 0.00 | 0.00 | 0.00 | 55 | 1014.1 |
| 20260903215505 | 70 | 290 | 4.0 | 8.0 | 0.00 | 0.00 | 0.00 | 56 | 1014.0 |
| 20260903215005 | 69 | 294 | 3.0 | 9.0 | 0.00 | 0.00 | 0.00 | 55 | 1013.9 |
| 20260903214504 | 70 | 302 | 3.0 | 12.0 | 0.00 | 0.00 | 0.00 | 55 | 1014.0 |
| 20260903214005 | 70 | 326 | 5.0 | 9.0 | 0.00 | 0.00 | 0.00 | 54 | 1014.0 |
| 20260903213505 | 70 | 275 | 6.0 | 10.0 | 0.00 | 0.00 | 0.00 | 55 | 1014.0 |
| 20260903213005 | 70 | 263 | 5.0 | 10.0 | 0.00 | 0.00 | 0.00 | 55 | 1014.1 |
| 20260903212005 | 70 | 256 | 4.0 | 9.0 | 0.00 | 0.00 | 0.00 | 55 | 1014.0 |
| 20260903211505 | 71 | 261 | 4.0 | 9.0 | 0.00 | 0.00 | 0.00 | 54 | 1014.0 |
| 20260903211005 | 70 | 314 | 5.0 | 12.0 | 0.00 | 0.00 | 0.00 | 54 | 1014.1 |
| 20260903210504 | 70 | 269 | 5.0 | 10.0 | 0.00 | 0.00 | 0.00 | 55 | 1014.1 |
| 20260903210005 | 70 | 255 | 6.0 | 12.0 | 0.00 | 0.00 | 0.00 | 54 | 1014.2 |
| 20260903205505 | 70 | 237 | 4.0 | 10.0 | 0.00 | 0.00 | 0.00 | 55 | 1014.2 |
| 20260903205005 | 69 | 212 | 2.0 | 9.0 | 0.00 | 0.00 | 0.00 | 56 | 1014.2 |
| 20260903204505 | 70 | 268 | 5.0 | 9.0 | 0.00 | 0.00 | 0.00 | 55 | 1014.2 |
| 20260903204005 | 70 | 198 | 6.0 | 13.0 | 0.00 | 0.00 | 0.00 | 55 | 1014.1 |
| 20260903203504 | 71 | 232 | 6.0 | 13.0 | 0.00 | 0.00 | 0.00 | 55 | 1014.1 |
| 20260903203006 | 71 | 212 | 3.0 | 10.0 | 0.00 | 0.00 | 0.00 | 54 | 1014.1 |
| 20260903202505 | 71 | 257 | 4.0 | 8.0 | 0.00 | 0.00 | 0.00 | 54 | 1014.1 |
| 20260903202005 | 70 | 196 | 4.0 | 9.0 | 0.00 | 0.00 | 0.00 | 54 | 1014.2 |
| 20260903201505 | 70 | 182 | 6.0 | 14.0 | 0.00 | 0.00 | 0.00 | 55 | 1014.2 |
| 20260903201005 | 70 | 201 | 3.0 | 14.0 | 0.00 | 0.00 | 0.00 | 55 | 1014.3 |
| 20260903200505 | 70 | 263 | 2.0 | 8.0 | 0.00 | 0.00 | 0.00 | 54 | 1014.3 |
| 20260903200005 | 70 | 181 | 5.0 | 14.0 | 0.00 | 0.00 | 0.00 | 55 | 1014.4 |
| 20260903195505 | 70 | 188 | 4.0 | 13.0 | 0.00 | 0.00 | 0.00 | 55 | 1014.3 |
| 20260903195004 | 70 | 272 | 6.0 | 12.0 | 0.00 | 0.00 | 0.00 | 54 | 1014.3 |
| 20260903194505 | 71 | 222 | 5.0 | 10.0 | 0.00 | 0.00 | 0.00 | 53 | 1014.5 |
| 20260903193505 | 71 | 207 | 4.0 | 9.0 | 0.00 | 0.00 | 0.00 | 51 | 1014.5 |
| 20260903193005 | 71 | 201 | 3.0 | 9.0 | 0.00 | 0.00 | 0.00 | 52 | 1014.5 |
| 20260903192505 | 70 | 171 | 5.0 | 9.0 | 0.00 | 0.00 | 0.00 | 52 | 1014.5 |
| 20260903192005 | 69 | 203 | 8.0 | 15.0 | 0.00 | 0.00 | 0.00 | 52 | 1014.5 |
| 20260903191505 | 69 | 190 | 7.0 | 13.0 | 0.00 | 0.00 | 0.00 | 53 | 1014.6 |
| 20260903191005 | 69 | 221 | 5.0 | 13.0 | 0.00 | 0.00 | 0.00 | 54 | 1014.4 |
| 20260903190505 | 69 | 217 | 7.0 | 13.0 | 0.00 | 0.00 | 0.00 | 54 | 1014.7 |
| 20260903185504 | 69 | 173 | 6.0 | 16.0 | 0.00 | 0.00 | 0.00 | 55 | 1014.8 |
| 20260903185005 | 68 | 197 | 7.0 | 13.0 | 0.00 | 0.00 | 0.00 | 54 | 1014.8 |
| 20260903184504 | 68 | 187 | 6.0 | 14.0 | 0.00 | 0.00 | 0.00 | 55 | 1015.0 |
| 20260903184005 | 69 | 220 | 8.0 | 14.0 | 0.00 | 0.00 | 0.00 | 55 | 1014.9 |
| 20260903183506 | 69 | 187 | 7.0 | 14.0 | 0.00 | 0.00 | 0.00 | 53 | 1014.8 |
| 20260903183004 | 70 | 211 | 8.0 | 14.0 | 0.00 | 0.00 | 0.00 | 52 | 1014.9 |
| 20260903182504 | 70 | 227 | 9.0 | 15.0 | 0.00 | 0.00 | 0.00 | 53 | 1015.0 |
| 20260903182004 | 70 | 203 | 7.0 | 16.0 | 0.00 | 0.00 | 0.00 | 52 | 1014.9 |
| 20260903181004 | 70 | 185 | 6.0 | 12.0 | 0.00 | 0.00 | 0.00 | 51 | 1015.0 |
| 20260903180005 | 69 | 170 | 7.0 | 16.0 | 0.00 | 0.00 | 0.00 | 55 | 1015.1 |
| 20260903175505 | 69 | 173 | 8.0 | 18.0 | 0.00 | 0.00 | 0.00 | 55 | 1015.1 |
| 20260903175004 | 69 | 211 | 9.0 | 13.0 | 0.00 | 0.00 | 0.00 | 55 | 1015.1 |
| 20260903174504 | 68 | 189 | 7.0 | 14.0 | 0.00 | 0.00 | 0.00 | 55 | 1015.1 |
| 20260903174004 | 68 | 187 | 7.0 | 12.0 | 0.00 | 0.00 | 0.00 | 56 | 1015.1 |
| 20260903173504 | 68 | 230 | 9.0 | 15.0 | 0.00 | 0.00 | 0.00 | 55 | 1015.2 |
| 20260903173005 | 68 | 184 | 6.0 | 9.0 | 0.00 | 0.00 | 0.00 | 56 | 1015.2 |
| 20260903172504 | 68 | 177 | 9.0 | 14.0 | 0.00 | 0.00 | 0.00 | 56 | 1015.2 |
| 20260903172004 | 68 | 194 | 6.0 | 12.0 | 0.00 | 0.00 | 0.00 | 55 | 1015.3 |
| 20260903171504 | 69 | 176 | 5.0 | 10.0 | 0.00 | 0.00 | 0.00 | 55 | 1015.3 |
| 20260903171004 | 68 | 136 | 4.0 | 8.0 | 0.00 | 0.00 | 0.00 | 56 | 1015.2 |
| 20260903170504 | 68 | 210 | 5.0 | 9.0 | 0.00 | 0.00 | 0.00 | 55 | 1015.2 |
| 20260903170005 | 67 | 141 | 5.0 | 12.0 | 0.00 | 0.00 | 0.00 | 55 | 1015.2 |
| 20260903165504 | 67 | 160 | 6.0 | 12.0 | 0.00 | 0.00 | 0.00 | 54 | 1015.3 |
| 20260903165004 | 67 | 152 | 5.0 | 12.0 | 0.00 | 0.00 | 0.00 | 55 | 1015.4 |
| 20260903164505 | 67 | 155 | 4.0 | 8.0 | 0.00 | 0.00 | 0.00 | 55 | 1015.5 |
| 20260903164004 | 66 | 176 | 5.0 | 9.0 | 0.00 | 0.00 | 0.00 | 56 | 1015.3 |
| 20260903163005 | 65 | 213 | 5.0 | 7.0 | 0.00 | 0.00 | 0.00 | 57 | 1015.4 |
| 20260903162505 | 64 | 217 | 2.0 | 3.0 | 0.00 | 0.00 | 0.00 | 59 | 1015.3 |
| 20260903161504 | 63 | 217 | 2.0 | 3.0 | 0.00 | 0.00 | 0.00 | 61 | 1015.6 |
| 20260903161004 | 62 | 229 | 2.0 | 3.0 | 0.00 | 0.00 | 0.00 | 62 | 1015.5 |
| 20260903160504 | 62 | 229 | 1.0 | 3.0 | 0.00 | 0.00 | 0.00 | 62 | 1015.5 |
| 20260903160005 | 61 | 229 | 2.0 | 3.0 | 0.00 | 0.00 | 0.00 | 63 | 1015.6 |
| 20260903155504 | 61 | 286 | 1.0 | 3.0 | 0.00 | 0.00 | 0.00 | 64 | 1015.7 |
| 20260903155004 | 60 | 289 | 0.0 | 0.0 | 0.00 | 0.00 | 0.00 | 65 | 1015.8 |
| 20260903154504 | 60 | 289 | 0.0 | 0.0 | 0.00 | 0.00 | 0.00 | 65 | 1015.7 |
| 20260903154004 | 60 | 289 | 0.0 | 0.0 | 0.00 | 0.00 | 0.00 | 64 | 1015.7 |
| 20260903153505 | 59 | 289 | 0.0 | 0.0 | 0.00 | 0.00 | 0.00 | 63 | 1015.8 |
| 20260903153005 | 59 | 289 | 0.0 | 0.0 | 0.00 | 0.00 | 0.00 | 65 | 1015.7 |
| 20260903152505 | 59 | 289 | 0.0 | 0.0 | 0.00 | 0.00 | 0.00 | 66 | 1015.7 |
| 20260903152005 | 59 | 289 | 0.0 | 0.0 | 0.00 | 0.00 | 0.00 | 66 | 1015.7 |